TimePDT,TemperatureF,Dew PointF,Humidity,Sea Level PressureIn,VisibilityMPH,Wind Direction,Wind SpeedMPH,Gust SpeedMPH,PrecipitationIn,Events,Conditions,WindDirDegrees,DateUTC
12:15 AM,46.4,44.6,93,29.91,4.0,West,9.2,-,0.06,Rain,Rain,280,2013-05-28 07:15:00
12:47 AM,46.4,44.6,93,29.91,5.0,West,6.9,-,0.15,Rain,Rain,260,2013-05-28 07:47:00
12:55 AM,46.0,44.1,93,29.87,6.0,WSW,8.1,-,0.16,Rain,Light Rain,250,2013-05-28 07:55:00
1:55 AM,45.0,43.0,93,29.87,10.0,West,6.9,-,0.05,,Overcast,260,2013-05-28 08:55:00
2:55 AM,45.0,43.0,93,29.86,10.0,West,9.2,-,0.02,Rain,Light Rain,280,2013-05-28 09:55:00
3:12 AM,44.6,42.8,93,29.91,6.0,WNW,5.8,-,0.01,Rain,Light Rain,290,2013-05-28 10:12:00
3:36 AM,44.6,42.8,93,29.91,10.0,West,5.8,-,0.04,Rain,Light Rain,280,2013-05-28 10:36:00
3:55 AM,45.0,43.0,93,29.87,9.0,NW,5.8,-,0.05,Rain,Light Rain,310,2013-05-28 10:55:00
4:22 AM,44.6,42.8,93,29.92,10.0,NW,5.8,-,0.01,Rain,Light Rain,310,2013-05-28 11:22:00
4:55 AM,44.1,41.0,89,29.88,10.0,West,4.6,-,0.01,,Overcast,280,2013-05-28 11:55:00
5:55 AM,44.1,41.0,89,29.90,10.0,WNW,4.6,-,N/A,,Overcast,300,2013-05-28 12:55:00
6:55 AM,45.0,41.0,86,29.91,10.0,Calm,Calm,-,N/A,,Overcast,0,2013-05-28 13:55:00
7:55 AM,46.0,39.9,79,29.93,10.0,WNW,5.8,-,N/A,,Mostly Cloudy,290,2013-05-28 14:55:00
8:55 AM,46.9,39.9,77,29.94,10.0,NW,8.1,-,N/A,,Overcast,310,2013-05-28 15:55:00
9:55 AM,50.0,39.0,66,29.93,10.0,North,6.9,-,N/A,,Overcast,10,2013-05-28 16:55:00
10:05 AM,50.0,39.2,66,29.97,10.0,NNW,8.1,-,N/A,,Overcast,330,2013-05-28 17:05:00
10:55 AM,53.1,39.0,59,29.93,10.0,NNW,5.8,-,N/A,,Overcast,340,2013-05-28 17:55:00
11:55 AM,55.0,37.9,53,29.94,10.0,NW,8.1,-,N/A,,Overcast,310,2013-05-28 18:55:00
12:55 PM,54.0,37.9,55,29.94,10.0,Variable,3.5,-,N/A,,Overcast,0,2013-05-28 19:55:00
1:55 PM,59.0,36.0,42,29.92,10.0,WNW,6.9,-,N/A,,Mostly Cloudy,300,2013-05-28 20:55:00
2:55 PM,62.1,37.0,39,29.90,10.0,WSW,11.5,17.3,N/A,,Mostly Cloudy,250,2013-05-28 21:55:00
3:55 PM,63.0,36.0,37,29.88,10.0,NW,5.8,20.7,N/A,,Mostly Cloudy,320,2013-05-28 22:55:00
4:55 PM,62.1,36.0,38,29.88,10.0,WNW,6.9,-,N/A,,Partly Cloudy,290,2013-05-28 23:55:00
5:55 PM,63.0,37.0,38,29.86,10.0,WSW,9.2,-,N/A,,Partly Cloudy,240,2013-05-29 00:55:00
6:55 PM,59.0,39.0,48,29.86,10.0,WSW,10.4,-,N/A,,Partly Cloudy,240,2013-05-29 01:55:00
7:55 PM,59.0,39.0,48,29.85,10.0,SW,9.2,-,N/A,,Scattered Clouds,220,2013-05-29 02:55:00
8:55 PM,54.0,39.9,59,29.86,10.0,SW,9.2,-,N/A,,Scattered Clouds,220,2013-05-29 03:55:00
9:55 PM,52.0,39.9,63,29.86,10.0,West,9.2,-,N/A,,Clear,260,2013-05-29 04:55:00
10:55 PM,48.9,41.0,74,29.85,10.0,WSW,3.5,-,N/A,,Scattered Clouds,250,2013-05-29 05:55:00
11:55 PM,50.0,41.0,71,29.83,10.0,SSE,6.9,-,N/A,,Overcast,160,2013-05-29 06:55:00